Regional Weather Roundup
Issued by NWS

Home | Current Version | Previous Version | Graphics & Text | Print | Product List | Glossary On
Versions: 1 2 3 4 5 6 7 8 9 10 11 12 13 14 15 16 17 18 19 20 21 22 23 24 25 26 27 28 29 30 31 32 33 34 35 36 37 38 39 40 41 42 43 44 45 46 47 48 49 50
000
ASUS43 KFSD 250410
RWRSD

WEATHER ROUNDUP FOR SOUTH DAKOTA
NATIONAL WEATHER SERVICE SIOUX FALLS SD
1100 PM CDT THU JUL 24 2014

NOTE: "FAIR" INDICATES FEW OR NO CLOUDS BELOW 12,000 FEET WITH NO
SIGNIFICANT WEATHER AND/OR OBSTRUCTIONS TO VISIBILITY.


SDZ001>005-009-010-012>017-250500-
NORTHWEST AND NORTH CENTRAL SOUTH DAKOTA

CITY           SKY/WX    TMP DP  RH WIND       PRES   REMARKS
BUFFALO          N/A     72  59  63 NW17G33   29.73R
FAITH            N/A     73  65  75 E23G29    29.68F
MOBRIDGE       TSTM      70  67  90 SW3       29.79R
$$

SDZ012>016-024>037-041>051-057-063-072>074-250500-
SOUTHWEST AND SOUTH CENTRAL SOUTH DAKOTA

CITY           SKY/WX    TMP DP  RH WIND       PRES   REMARKS
RAPID CTY ARPT CLEAR     84  58  40 NW13G22   29.71R
PIERRE         CLOUDY    82  70  66 SE14      29.61R
CUSTER         CLEAR     71  48  43 N6        29.92R
ELLSWORTH AFB  PTCLDY    77  62  58 NW21      29.72R
PHILIP         MOCLDY    85  57  38 SW10      29.62S
PINE RIDGE     CLEAR     81  54  39 S16G28    29.76S
WINNER         FAIR      84  67  56 S21G30    29.67R
$$

SDZ004>011-016>023-039-040-250500-
NORTHEAST SOUTH DAKOTA

CITY           SKY/WX    TMP DP  RH WIND       PRES   REMARKS
ABERDEEN       MOCLDY    69  63  81 SE10      29.72F
WATERTOWN      MOCLDY    66  60  81 SE10      29.80F
SISSETON         N/A     67  63  87 SE12G18   29.79F
$$

SDZ017-020-022-023-036>040-048>070-250500-
SOUTHEAST SOUTH DAKOTA

CITY           SKY/WX    TMP DP  RH WIND       PRES   REMARKS
SIOUX FALLS    MOCLDY    71  62  73 SE14      29.81S
HURON          PTCLDY    71  63  75 SE15G25   29.70F
CHAMBERLAIN    MOCLDY    79  69  71 S10       29.66F
MITCHELL       MOCLDY    74  64  71 S16G24    29.72F
YANKTON        CLOUDY    73  63  68 S18       29.77F
$$

ABBREVIATIONS USED IN REMARKS
   TC - TEMPERATURE IN CELSIUS
  WCI - WIND CHILL INDEX
   HX - HEAT INDEX
  VSB - VISIBILITY



USA.gov is the U.S. government's official web portal to all federal, state and local government web resources and services.